Overview Statistics Trail Chart Weather Telemetry Raw packets
 

This is the latest recevied weather packets stored in our database for station/object N8WJW. If no packets are shown the sender has not sent any weather packets the latest 10 day(s).

<< 1 2 3 4 5 6 >>
Time Temp. Humidity Pressure Rain* Wind** Luminosity Snow
1788561240 22.78° C 98% 1016.7 hPa 0 mm - 45 W/m² -
1788560936 23.33° C 98% 1016.6 hPa 0 mm - 50 W/m² -
1788560631 23.33° C 98% 1016.6 hPa 0 mm - 54 W/m² -
1788560330 23.33° C 97% 1016.5 hPa 0 mm - 55 W/m² -
1788560026 23.33° C 97% 1016.6 hPa 0 mm - 61 W/m² -
1788559721 23.33° C 97% 1016.4 hPa 0 mm - 65 W/m² -
1788559420 23.33° C 96% 1016.6 hPa 0 mm - 66 W/m² -
1788559116 23.89° C 95% 1016.2 hPa 0 mm - 71 W/m² -
1788558811 23.89° C 94% 1016.3 hPa 0 mm - 78 W/m² -
1788558507 23.89° C 94% 1016.2 hPa 0 mm - 83 W/m² -
1788558202 23.89° C 92% 1016 hPa 0 mm - 86 W/m² -
1788557900 23.89° C 92% 1015.9 hPa 0 mm - 98 W/m² -
1788557595 23.89° C 92% 1015.8 hPa 0 mm - 101 W/m² -
1788557291 23.89° C 92% 1015.8 hPa 0 mm - 106 W/m² -
1788556986 23.89° C 92% 1015.6 hPa 0 mm - 104 W/m² -
1788556681 23.89° C 92% 1015.7 hPa 0 mm - 111 W/m² -
1788556376 23.89° C 92% 1015.6 hPa 0 mm - 126 W/m² -
1788556071 23.89° C 91% 1015.4 hPa 0 mm - 141 W/m² -
1788555765 23.89° C 93% 1015.3 hPa 0 mm - 138 W/m² -
1788555461 23.33° C 93% 1015.2 hPa 0 mm - 119 W/m² -
1788555157 23.33° C 93% 1015.4 hPa 0 mm - 113 W/m² -
1788554854 23.33° C 93% 1015.4 hPa 0 mm - 107 W/m² -
1788554549 23.89° C 93% 1015.4 hPa 0 mm - 122 W/m² -
1788554245 23.89° C 93% 1015.3 hPa 0 mm - 166 W/m² -
1788553941 24.44° C 94% 1015.5 hPa 0 mm - 127 W/m² -

* Rain latest hour (hover to see other rain measurements)
** Current wind speed in m/s (hover to see current wind gust speed)